#timestamp,LO_Frequency,Hit,StdDev 
1538524815.1,286046999.0,N
1538524816.0,286046999.0,N
1538524835.8,286047001.2,N
1538524855.7,286047001.1,N
1538524875.5,286047002.5,N
1538524895.3,286047007.3,Y
1538524915.2,286047003.0,P
1538524935.0,286047003.0,N
1538524935.9,286047003.0,N
1538524955.8,286047006.1,Y
1538524975.6,286047004.3,P
1538524995.4,286046997.0,N
1538525015.3,286046998.8,N
1538525035.1,286046999.6,N
1538525055.9,286046999.0,N
1538525075.7,286046998.4,N
1538525095.5,286046999.1,N
1538525115.4,286046998.3,N
1538525135.2,286046998.2,N
1538525155.0,286046998.3,N
1538525155.9,286046998.3,N
1538525175.8,286047000.8,N
1538525195.6,286046999.8,N
1538525215.5,286047002.7,N
1538525235.3,286047001.0,N
1538525255.1,286046998.8,N
1538525275.9,286046997.7,N
1538525295.7,286046992.8,Y
1538525315.5,286046993.9,P
1538525335.4,286046993.7,N
1538525355.2,286046996.2,N
1538525375.1,286046995.3,N
1538525376.0,286046995.3,N
1538525395.8,286046993.6,Y
1538525415.6,286047002.5,P
1538525435.5,286047005.7,N
1538525455.3,286047001.7,N
1538525475.2,286047002.2,N
1538525495.9,286047001.3,N
1538525515.7,286046998.7,N
1538525535.6,286046999.2,N
1538525555.0,286046996.7,N
1538525555.9,286046996.7,N
1538525575.8,286046995.2,N
1538525595.6,286046999.2,N
1538525615.4,286046998.9,N
1538525635.3,286047000.8,N
1538525655.1,286047002.8,N
1538525675.9,286046999.4,N
1538525695.7,286046996.6,N
1538525715.5,286046999.4,N
1538525735.4,286047000.1,N
1538525755.2,286047000.0,N
1538525775.0,286046998.8,N
1538525776.0,286046998.8,N
1538525795.8,286046997.4,N
1538525815.6,286046995.1,N
1538525835.5,286046993.6,N
1538525855.3,286046993.3,N
1538525875.1,286046996.2,N
1538525895.9,286046997.5,N
1538525915.7,286046995.9,N
1538525935.5,286046995.7,N
1538525955.4,286046999.8,N
1538525975.2,286047002.3,N
1538525995.1,286046999.3,N
1538525996.0,286046999.3,N
1538526015.8,286047001.8,N
1538526035.6,286047004.2,N
1538526055.5,286047001.8,N
1538526075.3,286047004.0,N
1538526095.1,286047005.8,N
1538526115.9,286047003.0,N
1538526135.7,286047000.8,N
1538526155.6,286047002.2,N
1538526175.4,286047001.7,N
1538526195.2,286046999.8,N
1538526215.1,286047001.3,N
1538526216.0,286047001.3,N
1538526235.8,286047006.0,N
1538526255.7,286047002.0,N
1538526275.5,286047003.5,N
1538526295.3,286047003.9,N
1538526315.2,286047004.2,N
1538526335.9,286046998.3,N
1538526355.7,286047002.7,N
1538526375.6,286046998.4,N
1538526395.4,286047001.2,N
1538526415.2,286047000.6,N
1538526435.1,286047003.7,N
1538526436.0,286047003.7,N
1538526455.8,286047000.8,N
1538526475.7,286047000.7,N
1538526495.5,286047001.0,N
1538526515.3,286046998.5,N
1538526535.2,286047004.2,N
1538526555.0,286047005.1,N
1538526555.9,286047005.1,N
1538526575.8,286047003.5,N
1538526595.6,286047005.5,N
1538526615.5,286047005.9,N
1538526635.3,286047001.5,N
1538526655.1,286047004.4,N
1538526675.9,286047005.3,N
1538526695.7,286047003.0,N
1538526715.5,286047002.7,N
1538526735.4,286046999.5,N
1538526755.2,286046998.4,N
1538526775.0,286046998.8,N
1538526776.0,286046998.8,N
1538526795.8,286046997.2,N
1538526815.6,286046999.5,N
1538526835.5,286047000.6,N
1538526855.3,286047004.2,N
1538526875.1,286047005.5,N
1538526895.9,286047004.2,N
1538526915.7,286046999.8,N
1538526935.5,286047000.6,N
1538526955.4,286046999.0,N
1538526975.2,286046997.0,N
1538526995.1,286046998.2,N
1538526996.0,286046998.2,N
1538527015.8,286047002.1,N
1538527035.6,286047003.1,N
1538527055.5,286047003.7,N
1538527075.3,286047003.9,N
1538527095.1,286047003.8,N
1538527115.9,286047004.1,N
1538527135.7,286047002.0,N
1538527155.6,286047001.5,N
1538527175.4,286047004.3,N
1538527195.2,286046998.1,N
1538527215.1,286047002.6,N
1538527216.0,286047002.6,N
1538527235.8,286047004.3,N
1538527255.6,286047002.3,N
1538527275.5,286047002.4,N
1538527295.3,286047003.1,N
1538527315.1,286047007.1,N
1538527335.9,286047007.0,N
1538527355.7,286047006.5,N
1538527375.6,286047004.0,N
1538527395.4,286047003.8,N
1538527415.2,286047005.5,N
1538527435.1,286047007.6,N
1538527436.0,286047007.6,N
1538527455.8,286047007.5,N
1538527475.7,286047006.0,N
1538527495.5,286047003.1,N
1538527515.3,286047001.3,N
1538527535.2,286046999.9,N
1538527555.0,286046996.6,N
1538527555.9,286046996.6,N
1538527575.7,286047001.0,N
1538527595.6,286047000.2,N
1538527615.4,286047002.3,N
1538527635.3,286047002.3,N
1538527655.1,286046999.1,N
1538527656.0,286046999.1,N
1538527675.8,286046999.4,N
1538527725.7,286046998.5,E
1538527735.6,286046998.1,N
1538527755.5,286047000.0,P
1538527775.3,286047000.2,N
1538527795.1,286047003.4,Y
1538527815.9,286047005.3,P
1538527835.7,286047005.7,N
1538527855.5,286047007.1,N
1538527875.4,286047006.2,N
1538527895.2,286047006.5,N
1538527915.1,286047006.3,N
1538527916.0,286047006.3,N
1538527935.8,286047006.4,N
1538527955.6,286047005.4,N
1538527975.5,286047003.4,N
1538527995.3,286047007.1,Y
1538528015.1,286046999.1,P
1538528035.9,286047000.2,N
1538528055.7,286046998.9,N
1538528075.6,286046996.8,N
1538528095.4,286046997.9,N
1538528115.2,286046995.1,N
1538528135.1,286046996.1,N
1538528155.0,286046998.2,N
1538528155.9,286046998.2,N
1538528175.8,286046999.2,N
1538528195.6,286046999.5,N
1538528215.4,286046996.5,N
1538528235.3,286046996.7,N
1538528255.1,286046999.5,N
1538528275.9,286046997.2,N
1538528295.7,286047000.2,N
1538528315.5,286047002.2,N
1538528335.4,286047001.4,N
1538528355.2,286047000.7,N
1538528375.0,286046998.8,N
1538528375.9,286046998.8,N
1538528395.8,286047000.4,N
